Location: Gipe Farm
(40.9466°N, 95.5370°W)
Time: 22:33:04
(UTC-05:00)

Cosmos 1842 - Visible Passes

Search period start: 22 July 2014 00:00
Search period end: 01 August 2014 00:00
Orbit: 539 x 555 km, 82.5° (Epoch: 21 July)

Date Brightness Start Highest point End Pass type
(mag) Time Alt. Az. Time Alt. Az. Time Alt. Az.
22 Jul 5.9 01:42:47 10° NE 01:44:56 14° ENE 01:44:56 14° ENE visible
22 Jul 4.4 03:17:45 10° NNW 03:20:34 34° NW 03:20:34 34° NW visible
23 Jul 5.8 01:37:20 10° NE 01:39:24 15° ENE 01:39:24 15° ENE visible
23 Jul 4.7 03:12:29 10° NNW 03:15:02 30° NW 03:15:02 30° NW visible
24 Jul 5.8 01:31:54 10° NNE 01:33:53 16° ENE 01:33:53 16° ENE visible
24 Jul 4.9 03:07:14 10° NNW 03:09:31 27° NW 03:09:31 27° NW visible
25 Jul 5.8 01:26:28 10° NNE 01:28:23 16° ENE 01:28:23 16° ENE visible
25 Jul 5.1 03:01:58 10° NNW 03:04:01 24° NW 03:04:01 24° NW visible
26 Jul 5.8 01:21:03 10° NNE 01:22:54 17° NE 01:22:54 17° NE visible
26 Jul 5.2 02:56:42 10° NNW 02:58:32 22° NW 02:58:32 22° NW visible
27 Jul 5.7 01:15:38 10° NNE 01:17:25 17° NE 01:17:25 17° NE visible
27 Jul 5.4 02:51:26 10° NNW 02:53:04 20° NW 02:53:04 20° NW visible
28 Jul 5.7 01:10:14 10° NNE 01:11:58 18° NE 01:11:58 18° NE visible
28 Jul 5.5 02:46:11 10° NNW 02:47:36 18° NW 02:47:36 18° NW visible
29 Jul 5.7 01:04:49 10° NNE 01:06:31 18° NE 01:06:31 18° NE visible
29 Jul 5.7 02:40:56 10° NNW 02:42:09 17° NW 02:42:09 17° NW visible
30 Jul 5.7 00:59:26 10° NNE 01:01:04 18° NE 01:01:04 18° NE visible
30 Jul 5.8 02:35:41 10° NW 02:36:42 15° NW 02:36:42 15° NW visible
31 Jul 5.7 00:54:02 10° NNE 00:55:38 18° NE 00:55:38 18° NE visible
31 Jul 5.9 02:30:26 10° NW 02:31:17 14° NW 02:31:17 14° NW visible
